Flag for U.S.A. Weather past 2 weeks in Berkeley, California, U.S.A.

Now
54 °F

Fog.


Feels Like: 54 °F
Forecast: 51 / 59 °F
Wind: No wind

Location: Metro Oakland International Airport

Current Time: Dec 20, 2014 at 5:21:16 AM

Latest Report: Dec 20, 2014 at 4:53 AM


Visibility: 4 mi

Pressure: 30.13 "Hg

Humidity: 97%

Dew point: 53 °F

Location of BerkeleyLocation

Historic Weather in Berkeley — Graph

°F

Berkeley temperature yesterday

Maximum temperature yesterday: 57 °F (at 11:53 AM)
Minimum temperature yesterday: 54 °F (at 12:53 AM)
Average temperature yesterday: 56 °F

Past Weeks' High & Low Weather Summary

 TemperatureHumidityPressure
High67 °F (Dec 8, 12:53 PM)100% (Dec 10, 12:04 AM)30.23 "Hg (Dec 10, 12:04 AM)
Low47 °F (Dec 13, 2:53 AM)58% (Dec 14, 12:53 PM)29.52 "Hg (Dec 11, 7:53 AM)
Average56 °F85%30.03 "Hg
* Reported Dec 5 3:53 AM — Dec 20 3:53 AM, Berkeley, Weather by CustomWeather, © 2014

Note: Actual official high and low records may vary slightly from our data, if they occured in-between our weather recording intervals... More about our weather records

Advertising

Berkeley weather history for previous 24 hours

 ConditionsComfort  
Time TempWeatherWind HumidityBarometerVisibility
3:53 AM
Dec 20
55 °FFog.No wind96%30.14 "Hg5 mi
2:53 AM56 °FMostly cloudy.3 mph93%30.14 "Hg8 mi
1:53 AM56 °FLow clouds.5 mph93%30.14 "Hg8 mi
12:53 AM56 °FLight rain. Fog.5 mph93%30.13 "Hg6 mi
11:53 PM
Dec 19
55 °FMostly cloudy.3 mph96%30.14 "Hg8 mi
10:53 PM56 °FOvercast.6 mph90%30.16 "Hg9 mi
9:53 PM56 °FOvercast.3 mph93%30.15 "Hg10 mi
8:53 PM56 °FOvercast.6 mph93%30.14 "Hg10 mi
7:57 PM55 °FFog.10 mph94%30.12 "Hg1 mi
6:53 PM55 °FMostly cloudy.9 mph96%30.13 "Hg10 mi
5:53 PM55 °FOvercast.8 mph96%30.13 "Hg10 mi
4:53 PM55 °FOvercast.5 mph96%30.14 "Hg10 mi
3:53 PM56 °FRain. Fog.8 mph90%30.13 "Hg1 mi
2:53 PM57 °FLight rain. Fog.13 mph87%30.12 "Hg3 mi
1:53 PM57 °FLight rain. Overcast.16 mph87%30.11 "Hg10 mi
12:53 PM56 °FLight rain. Mostly cloudy.15 mph90%30.12 "Hg10 mi
11:53 AM57 °FMostly cloudy.13 mph83%30.14 "Hg10 mi
10:53 AM56 °FLight rain. Overcast.14 mph84%30.16 "Hg10 mi
9:53 AM55 °FLight rain. Overcast.13 mph87%30.17 "Hg9 mi
8:53 AM56 °FCloudy.20 mph81%30.14 "Hg10 mi
7:53 AM56 °FCloudy.20 mph81%30.12 "Hg10 mi
6:53 AM56 °FOvercast.17 mph81%30.12 "Hg10 mi
5:53 AM56 °FOvercast.16 mph81%30.11 "Hg10 mi
Weather by CustomWeather, © 2014

See weather overviewHow to use our weather pages